This is the latest recevied weather packets stored in our database for station/object IZ3TCG-13. If no packets are shown the sender has not sent any weather packets the latest 10 day(s).
| Time | Temp. | Humidity | Pressure | Rain* | Wind** | Luminosity | Snow |
|---|---|---|---|---|---|---|---|
| 1778129043 | 13.33° C | 99% | 1014 hPa | 0 mm | - | - | - |
| 1778128803 | 13.33° C | 99% | 1014 hPa | 0 mm | - | - | - |
| 1778127844 | 13.33° C | 99% | 1013.8 hPa | 0 mm | - | - | - |
| 1778127124 | 13.33° C | 99% | 1013.5 hPa | 0 mm | - | - | - |
| 1778126885 | 13.33° C | 99% | 1013.5 hPa | 0 mm | - | - | - |
| 1778126404 | 13.33° C | 99% | 1013.5 hPa | 0 mm | - | - | - |
| 1778125204 | 13.33° C | 99% | 1013.7 hPa | 0 mm | - | - | - |
| 1778124723 | 13.33° C | 99% | 1013.6 hPa | 0 mm | - | - | - |
| 1778124243 | 13.33° C | 99% | 1013.5 hPa | 0 mm | - | - | - |
| 1778124004 | 13.33° C | 99% | 1013.6 hPa | 0 mm | - | - | - |
| 1778122325 | 12.78° C | 99% | 1013.3 hPa | 0 mm | - | - | - |
| 1778119444 | 12.22° C | 99% | 1013.4 hPa | 0 mm | - | - | - |
| 1778117174 | 12.22° C | 99% | 1013.1 hPa | 0 mm | - | - | - |
| 1778116563 | 12.78° C | 99% | 1013.2 hPa | 0 mm | - | - | - |
| 1778114884 | 13.33° C | 99% | 1013.1 hPa | 0 mm | - | - | - |
| 1778114404 | 13.33° C | 99% | 1013 hPa | 0 mm | - | - | - |
| 1778112483 | 13.33° C | 99% | 1013.1 hPa | 0 mm | - | - | - |
| 1778112244 | 13.33° C | 99% | 1012.9 hPa | 0 mm | - | - | - |
| 1778111524 | 13.33° C | 99% | 1013.2 hPa | 0 mm | - | - | - |
| 1778110804 | 13.33° C | 99% | 1013.1 hPa | 0 mm | - | - | - |
| 1778110564 | 13.89° C | 99% | 1013.2 hPa | 0 mm | - | - | - |
| 1778110216 | 13.89° C | 99% | 1013.2 hPa | 0 mm | - | - | - |
| 1778109844 | 13.89° C | 99% | 1013.1 hPa | 0 mm | - | - | - |
| 1778109604 | 13.89° C | 99% | 1013.2 hPa | 0 mm | - | - | - |
| 1778108883 | 13.33° C | 99% | 1013.1 hPa | 0 mm | - | - | - |
* Rain latest hour (hover to see other rain measurements)
** Current wind speed in m/s (hover to see current wind gust speed)